Location: *
(49.4547°N, 7.9131°E)
Time: 10:49:29
(UTC+00:00)

CZ-2C R/B - Pass Details

Date: 22 September 2019
Orbit: 785 x 870 km, 98.3° (Epoch: 18 October)

Event Time Altitude Azimuth Distance (km) Brightness Sun altitude
Rises 19:15:37 0° 25° (NNE) 3,446 5.9 -18.0°
Reaches altitude 10° 19:18:36 10° 40° (NE) 2,514 5.0 -18.4°
Enters shadow 19:21:05 19° 65° (ENE) 1,963 4.2 -18.8°
